Location: Chantarel
(45.1638°N, 1.7873°E)
Time: 07:56:31
(UTC+00:00)

USA 308 - Pass Details

Date: 03 March 2021
Orbit: 571 x 574 km, 54.0° (Epoch: 10 April)

Event Time Altitude Azimuth Distance (km) Brightness Sun altitude
Rises 18:25:33 0° 277° (W) 2,778 8.6 -8.3°
Reaches altitude 10° 18:28:04 10° 290° (WNW) 1,880 6.9 -8.7°
Maximum altitude 18:31:45 27° 349° (N) 1,112 4.5 -9.4°
Drops below altitude 10° 18:35:26 10° 49° (NE) 1,880 5.1 -10.0°
Enters shadow 18:35:59 - 52° (NE) 2,064 5.3 -10.1°
